TimeCST,TemperatureF,Dew PointF,Humidity,Sea Level PressureIn,VisibilityMPH,Wind Direction,Wind SpeedMPH,Gust SpeedMPH,PrecipitationIn,Events,Conditions,WindDirDegrees,DateUTC
12:56 AM,30.9,26.1,82,30.07,9.0,SSE,21.9,31.1,N/A,,Clear,160,2013-02-09 06:56:00
1:56 AM,30.0,26.1,85,30.04,8.0,SSE,23.0,32.2,N/A,,Clear,160,2013-02-09 07:56:00
2:56 AM,30.0,26.1,85,30.02,6.0,SSE,23.0,31.1,N/A,,Clear,160,2013-02-09 08:56:00
3:13 AM,30.2,26.6,86,29.96,5.0,South,21.9,31.1,N/A,,Partly Cloudy,170,2013-02-09 09:13:00
3:28 AM,30.2,26.6,86,29.96,5.0,South,28.8,35.7,N/A,,Mostly Cloudy,170,2013-02-09 09:28:00
3:56 AM,30.9,27.0,85,30.00,5.0,South,25.3,33.4,N/A,,Overcast,170,2013-02-09 09:56:00
4:56 AM,32.0,28.0,85,29.99,5.0,SSE,20.7,28.8,N/A,,Overcast,160,2013-02-09 10:56:00
5:56 AM,32.0,28.0,85,29.98,5.0,SSE,15.0,24.2,N/A,,Overcast,150,2013-02-09 11:56:00
6:23 AM,30.2,26.6,86,29.92,5.0,SSE,15.0,-,N/A,,Mostly Cloudy,150,2013-02-09 12:23:00
6:34 AM,30.2,26.6,86,29.93,6.0,SSE,15.0,21.9,N/A,,Scattered Clouds,150,2013-02-09 12:34:00
6:56 AM,30.9,27.0,85,29.98,6.0,SSE,11.5,-,N/A,,Mostly Cloudy,160,2013-02-09 12:56:00
7:56 AM,30.0,27.0,88,29.98,5.0,SSE,12.7,-,N/A,,Scattered Clouds,160,2013-02-09 13:56:00
8:56 AM,32.0,28.0,85,29.97,6.0,SSE,10.4,-,N/A,,Mostly Cloudy,150,2013-02-09 14:56:00
9:56 AM,36.0,28.9,76,29.94,8.0,SSE,20.7,29.9,N/A,,Scattered Clouds,160,2013-02-09 15:56:00
10:56 AM,39.9,30.0,68,29.93,10.0,South,20.7,28.8,N/A,,Partly Cloudy,170,2013-02-09 16:56:00
11:56 AM,45.0,30.9,58,29.88,10.0,South,19.6,28.8,N/A,,Clear,180,2013-02-09 17:56:00
12:56 PM,48.9,30.9,50,29.83,10.0,South,20.7,27.6,N/A,,Clear,170,2013-02-09 18:56:00
1:56 PM,51.1,30.9,46,29.78,10.0,South,20.7,28.8,N/A,,Clear,170,2013-02-09 19:56:00
2:56 PM,53.1,32.0,45,29.75,10.0,SSE,24.2,29.9,N/A,,Partly Cloudy,160,2013-02-09 20:56:00
3:56 PM,52.0,34.0,50,29.70,10.0,SE,16.1,24.2,N/A,,Clear,140,2013-02-09 21:56:00
4:56 PM,48.9,34.0,56,29.73,10.0,SSE,12.7,23.0,N/A,,Overcast,150,2013-02-09 22:56:00
5:56 PM,46.9,35.1,63,29.71,10.0,SE,13.8,-,N/A,,Mostly Cloudy,130,2013-02-09 23:56:00
6:56 PM,45.0,35.1,68,29.71,10.0,SE,18.4,23.0,N/A,,Overcast,130,2013-02-10 00:56:00
7:42 PM,42.8,35.6,76,29.66,10.0,SE,16.1,23.0,N/A,,Overcast,130,2013-02-10 01:42:00
7:56 PM,42.1,34.0,73,29.69,10.0,SE,16.1,24.2,N/A,,Overcast,130,2013-02-10 01:56:00
8:11 PM,42.8,33.8,70,29.65,10.0,SE,18.4,24.2,N/A,,Overcast,130,2013-02-10 02:11:00
8:56 PM,42.1,34.0,73,29.67,10.0,SE,17.3,27.6,N/A,,Overcast,130,2013-02-10 02:56:00
9:39 PM,41.0,33.8,76,29.63,10.0,SE,15.0,-,N/A,,Overcast,130,2013-02-10 03:39:00
9:56 PM,41.0,33.1,73,29.66,10.0,SE,13.8,-,N/A,,Overcast,130,2013-02-10 03:56:00
10:56 PM,37.9,33.1,83,29.65,6.0,SE,15.0,-,0.00,Rain,Light Rain,130,2013-02-10 04:56:00
11:39 PM,37.4,33.8,87,29.62,3.0,SE,12.7,-,0.00,,Overcast,140,2013-02-10 05:39:00
11:52 PM,37.4,33.8,87,29.59,3.0,ESE,10.4,-,0.00,,Overcast,120,2013-02-10 05:52:00
11:56 PM,36.0,34.0,93,29.59,4.0,East,12.7,-,0.00,Rain,Light Rain,100,2013-02-10 05:56:00